TimeCDT,TemperatureF,Dew PointF,Humidity,Sea Level PressureIn,VisibilityMPH,Wind Direction,Wind SpeedMPH,Gust SpeedMPH,PrecipitationIn,Events,Conditions,WindDirDegrees,DateUTC
12:54 AM,50.0,28.9,44,29.54,10.0,SE,8.1,-,N/A,,Clear,140,2014-04-10 05:54:00
1:54 AM,53.1,33.1,47,29.61,10.0,North,-9999.0,-,N/A,,Clear,0,2014-04-10 06:54:00
2:54 AM,60.1,32.0,35,29.60,10.0,NNW,24.2,33.4,N/A,,Clear,340,2014-04-10 07:54:00
3:54 AM,57.9,39.9,51,29.67,10.0,North,29.9,43.7,N/A,,Clear,10,2014-04-10 08:54:00
4:54 AM,54.0,39.0,57,29.74,10.0,North,15.0,25.3,N/A,,Clear,360,2014-04-10 09:54:00
5:54 AM,48.9,36.0,61,29.79,10.0,NNW,9.2,-,N/A,,Clear,340,2014-04-10 10:54:00
6:54 AM,45.0,34.0,65,29.82,10.0,North,11.5,-,N/A,,Clear,350,2014-04-10 11:54:00
7:54 AM,48.9,36.0,61,29.86,10.0,North,11.5,-,N/A,,Clear,350,2014-04-10 12:54:00
8:54 AM,55.0,36.0,49,29.91,10.0,NNW,17.3,-,N/A,,Clear,330,2014-04-10 13:54:00
9:54 AM,57.9,27.0,31,29.91,10.0,North,16.1,-,N/A,,Mostly Cloudy,360,2014-04-10 14:54:00
10:54 AM,61.0,28.0,29,29.94,10.0,North,16.1,-,N/A,,Partly Cloudy,350,2014-04-10 15:54:00
11:54 AM,61.0,21.9,22,29.96,10.0,North,16.1,25.3,N/A,,Clear,360,2014-04-10 16:54:00
12:54 PM,64.0,19.0,18,29.95,10.0,North,16.1,23.0,N/A,,Clear,350,2014-04-10 17:54:00
1:54 PM,66.0,18.0,16,29.94,10.0,NNW,15.0,20.7,N/A,,Clear,330,2014-04-10 18:54:00
2:54 PM,66.9,18.0,15,29.93,10.0,North,4.6,20.7,N/A,,Clear,350,2014-04-10 19:54:00
3:54 PM,68.0,16.0,14,29.91,10.0,WNW,11.5,-,N/A,,Clear,300,2014-04-10 20:54:00
4:54 PM,69.1,18.0,14,29.91,10.0,WNW,12.7,-,N/A,,Clear,290,2014-04-10 21:54:00
5:54 PM,68.0,17.1,14,29.91,10.0,NNW,8.1,18.4,N/A,,Clear,340,2014-04-10 22:54:00
6:54 PM,66.0,18.0,16,29.93,10.0,WNW,8.1,-,N/A,,Clear,300,2014-04-10 23:54:00
7:54 PM,60.1,23.0,24,29.94,10.0,WNW,5.8,-,N/A,,Clear,300,2014-04-11 00:54:00
8:54 PM,54.0,19.9,26,29.96,10.0,Calm,Calm,-,N/A,,Clear,0,2014-04-11 01:54:00
9:54 PM,48.0,18.0,30,29.98,10.0,SW,3.5,-,N/A,,Clear,220,2014-04-11 02:54:00
10:54 PM,46.0,19.9,35,29.98,10.0,Calm,Calm,-,N/A,,Clear,0,2014-04-11 03:54:00
11:54 PM,39.0,15.1,38,29.98,10.0,Calm,Calm,-,N/A,,Clear,0,2014-04-11 04:54:00